Home   Weather   Peterborough   Past weeks

Flag for United Kingdom Past Weather in Peterborough, England, United Kingdom — Yesterday and Last 2 Weeks

Now
59 °F

Passing clouds.


Feels Like: 55 °F
Forecast: 46 / 58 °F
Wind: 20 mph from Southeast

Location: Wittering

Current Time: Apr 30, 2017 at 4:15:47 pm

Latest Report: Apr 30, 2017 at 2:50 pm


Visibility: N/A

Pressure: 29.53 "Hg

Humidity: 48%

Dew Point: 39 °F

Location of PeterboroughLocation

Past Weather in Peterborough — Graph

°F

Peterborough Temperature Yesterday

Maximum temperature yesterday: 55 °F (at 2:50 pm)
Minimum temperature yesterday: 43 °F (at 5:50 am)
Average temperature yesterday: 50 °F

High & Low Weather Summary for the Past Weeks

 TemperatureHumidityPressure
High63 °F (Apr 30, 12:50 pm)100% (Apr 17, 2:50 am)30.63 "Hg (Apr 17, 2:50 am)
Low30 °F (Apr 25, 3:50 am)38% (Apr 19, 3:50 pm)29.53 "Hg (Apr 30, 1:50 pm)
Average47 °F72%30.17 "Hg
* Reported Apr 15 2:50 pm — Apr 30 2:50 pm, Peterborough, Weather by CustomWeather, © 2017

Note: Actual official high and low records may vary slightly from our data, if they occured in-between our weather recording intervals... More about our weather records

Advertising

Peterborough Weather History for the Previous 24 Hours

Scroll right to see more
 ConditionsComfort  
Time TempWeatherWind HumidityBarometerVisibility
2:50 pm
Sun, Apr 30
59 °FPassing clouds.20 mph48%29.53 "HgN/A
1:50 pm63 °FPassing clouds.18 mph45%29.53 "HgN/A
12:50 pm63 °FPartly sunny.20 mph45%29.56 "HgN/A
11:50 am61 °FScattered clouds.20 mph48%29.59 "HgN/A
10:50 am57 °FScattered clouds.18 mph55%29.62 "HgN/A
9:50 am54 °FOvercast.15 mph67%29.65 "Hg6 mi
8:50 am50 °FOvercast.12 mph71%29.68 "Hg4 mi
7:50 am48 °FPartly sunny.13 mph76%29.68 "Hg4 mi
6:50 am45 °FPartly sunny.12 mph81%29.71 "Hg4 mi
5:50 am45 °FOvercast.12 mph81%29.74 "Hg4 mi
4:50 am45 °FPassing clouds.10 mph81%29.74 "Hg4 mi
3:50 am46 °FPassing clouds.9 mph71%29.77 "Hg4 mi
2:50 am46 °FPartly cloudy.10 mph76%29.77 "Hg4 mi
1:50 am46 °FOvercast.9 mph76%29.80 "Hg3 mi
12:50 am46 °FPassing clouds.8 mph76%29.83 "Hg4 mi
11:50 pm
Sat, Apr 29
46 °FHaze.9 mph82%29.83 "Hg4 mi
10:50 pm46 °FPassing clouds.8 mph76%29.86 "Hg6 mi
9:50 pm50 °FPassing clouds.9 mph67%29.86 "HgN/A
8:50 pm52 °FPassing clouds.8 mph67%29.86 "HgN/A
7:50 pm54 °FOvercast.7 mph58%29.86 "HgN/A
6:50 pm55 °FOvercast.7 mph59%29.86 "HgN/A
5:50 pm55 °FOvercast.9 mph55%29.86 "HgN/A
4:50 pm55 °FOvercast.7 mph55%29.89 "HgN/A
Weather by CustomWeather, © 2017

See weather overviewHow to use our weather pages